Location: American Medical Response
(33.3472°N, 96.5511°W)
Time: 04:33:57
(UTC+00:00)

SJ 16-02 - Pass Details

Date: 12 July 2022
Orbit: 604 x 615 km, 75.0° (Epoch: 07 August)

Event Time Altitude Azimuth Distance (km) Brightness Sun altitude
Rises 05:23:54 0° 338° (NNW) 2,887 5.9 -32.4°
Reaches altitude 10° 05:26:12 10° 333° (NNW) 1,977 4.8 -32.5°
Enters shadow 05:28:13 25° 321° (NW) 1,240 3.4 -32.6°
